Wind_Speed
18 19 20 20 20 21 21 21 22 22 22 23 22 22 21 20 20 12 7 9 3 5 15 6 0 3 4 3 3 3 5 3 6 6 4 6 5 1 1 5 2 5 2 12 23
19 20 21 22 23 22 22 22 22 23 23 24 23 22 19 17 17 11 7 7 9 4 12 10 4 4 2 3 1 4 4 10 6 6 5 7 6 9 5 5 3 5 8 28 26
21 23 23 24 24 24 24 23 24 23 24 24 22 21 14 11 5 6 6 8 13 13 9 8 6 3 3 2 3 4 6 5 6 7 5 9 6 5 7 5 8 12 14 18 23
22 24 26 25 25 25 25 24 24 24 25 24 21 16 7 4 1 1 7 9 15 16 9 8 4 4 4 4 3 4 6 6 4 6 6 11 9 6 7 6 9 15 17 15 16
23 26 27 27 26 26 26 25 24 25 25 22 17 8 2 1 8 6 8 4 17 16 9 5 4 5 5 4 4 3 3 6 7 7 3 11 9 6 7 1 15 16 16 15 12
24 27 28 28 28 27 27 26 26 26 23 17 9 3 2 3 2 8 1 12 11 12 7 7 7 6 4 3 4 8 4 4 3 3 4 7 3 7 6 9 16 19 15 14 13
26 28 29 30 28 28 28 28 26 23 17 8 3 6 2 12 2 5 3 2 6 11 5 7 5 3 4 1 2 2 2 3 4 5 4 9 2 7 7 11 17 15 14 11 10
29 30 32 31 29 28 30 23 17 9 3 2 9 4 7 4 5 12 9 8 5 8 8 4 6 1 1 1 5 1 4 2 1 3 3 4 11 6 11 15 15 12 10 8 8
32 34 33 32 30 31 22 14 5 7 5 10 5 2 8 4 7 5 13 6 5 7 7 2 4 1 4 4 5 6 1 2 2 4 5 3 3 6 10 12 10 9 10 10 7
35 37 35 34 31 23 15 4 3 5 5 2 0 2 5 2 4 10 5 8 3 5 3 3 4 3 4 5 2 1 3 2 1 7 6 6 5 5 14 12 13 13 13 12 14
38 39 37 33 28 11 14 2 5 3 1 5 4 5 5 8 6 2 0 7 3 7 2 2 4 3 6 5 3 2 2 2 4 7 5 13 10 11 11 12 13 14 14 16 19
39 39 39 32 18 6 8 5 5 1 8 9 11 8 18 5 5 2 4 4 3 3 2 5 2 8 3 5 3 3 2 5 3 5 8 4 13 4 15 18 21 19 19 16 14
40 37 38 28 8 5 4 6 7 5 1 8 5 4 5 9 6 6 5 3 4 4 3 6 6 5 3 2 2 4 4 5 6 1 2 5 3 3 5 4 7 12 13 12 18
40 37 36 22 2 9 1 10 19 6 4 7 5 4 3 3 2 8 10 6 2 8 7 5 4 4 3 4 7 4 7 6 4 5 4 5 4 6 4 8 8 12 12 12 12
41 38 29 12 6 1 7 17 9 3 4 11 7 1 2 1 5 2 4 4 8 5 6 8 5 3 3 5 7 9 3 2 3 4 3 3 3 4 8 13 18 19 16 12 10
38 35 19 6 5 7 16 14 2 5 2 7 5 7 9 5 7 3 3 4 3 5 2 6 2 5 6 5 6 3 3 5 4 3 1 6 6 4 11 25 24 13 17 16 14
36 25 9 3 4 13 15 3 5 5 5 8 5 8 4 7 8 8 2 4 4 2 4 4 5 4 4 1 2 4 6 4 4 3 5 2 4 8 17 10 22 23 17 17 17
36 14 5 8 13 12 4 5 4 1 3 4 5 8 5 8 6 9 4 3 4 3 2 2 12 4 1 7 6 3 7 5 4 3 6 3 6 6 4 9 5 8 14 14 16
35 10 5 13 9 11 5 5 3 0 5 5 7 6 6 7 2 7 6 4 3 2 2 1 5 3 5 2 4 2 2 5 5 3 1 3 5 4 4 4 4 9 16 16 18
21 8 7 15 7 6 5 4 3 3 5 3 3 3 4 6 8 8 3 5 8 5 3 3 3 3 5 2 3 6 6 2 2 2 4 4 4 5 5 9 6 10 15 16 16
7 3 13 11 4 5 4 3 3 2 4 3 4 3 3 3 3 4 6 2 6 7 6 4 2 6 1 2 5 3 2 2 4 5 5 3 6 9 13 15 17 14 13 17 18
6 2 15 6 4 1 1 3 4 4 6 4 4 3 2 2 2 4 5 2 10 5 4 3 2 3 6 5 4 2 5 5 4 7 3 4 6 5 11 11 13 14 13 14 14
2 3 9 7 2 2 4 3 2 6 4 4 3 4 4 3 3 2 4 3 9 8 5 6 2 3 9 5 5 5 2 5 3 1 5 5 6 3 4 8 13 9 9 11 13
3 4 4 5 2 3 3 3 5 6 3 4 3 4 4 2 1 4 4 4 12 3 10 1 2 6 6 6 2 6 5 6 6 1 6 7 6 5 7 9 8 8 11 14 15
4 0 2 4 4 3 1 1 3 4 4 7 3 4 1 2 2 1 3 6 8 4 5 3 4 3 5 6 5 6 11 8 2 7 7 21 8 10 14 14 16 9 10 12 14
2 2 4 1 2 1 3 1 1 5 1 2 3 6 1 2 3 3 4 2 6 5 4 4 4 4 5 10 10 13 14 11 5 5 9 15 11 9 5 6 6 12 14 15 17
3 2 3 3 3 2 1 1 1 3 1 5 3 3 4 2 5 9 10 9 10 5 2 2 3 1 5 3 5 8 10 14 5 4 4 9 9 8 7 9 12 14 16 18 18
Wind_Direction
358 355 352 347 344 342 341 340 337 335 334 333 328 324 320 317 311 300 248 241 192 213 197 212 14 141 153 132 118 136 74 165 207 169 219 150 133 263 274 149 116 157 133 132 140
355 355 349 344 343 341 339 337 335 333 331 330 327 322 321 318 320 264 277 286 211 168 180 158 158 131 80 133 67 99 129 202 202 200 188 171 138 159 159 165 165 78 94 132 143
354 351 345 344 341 339 337 334 333 330 326 324 322 321 322 330 321 251 5 335 189 178 135 124 127 120 123 145 178 152 170 200 235 211 150 147 143 170 144 210 200 166 150 148 149
351 347 343 342 338 337 334 332 329 325 321 317 317 320 325 351 344 324 338 5 163 170 136 123 79 107 126 165 174 135 214 183 221 208 141 159 141 177 204 213 169 156 154 154 158
349 343 342 340 336 334 331 327 323 318 313 312 314 317 13 330 252 316 334 116 151 165 160 126 128 149 162 174 118 182 196 208 237 178 190 131 172 177 212 194 133 139 153 158 157
347 343 342 339 335 333 329 323 319 312 306 305 301 148 158 272 289 319 268 150 157 159 159 143 180 195 126 172 161 197 197 233 308 149 172 128 151 149 203 144 142 150 160 158 159
349 345 342 338 335 332 328 323 317 308 300 282 218 141 188 242 214 69 117 149 172 180 147 213 180 134 150 341 228 210 203 113 38 175 151 110 38 223 155 153 154 158 158 147 138
352 348 343 340 337 333 328 327 324 333 327 154 143 142 244 267 262 262 246 242 218 198 211 304 179 109 135 260 23 55 55 51 56 117 190 136 226 204 159 155 164 155 129 112 112
354 351 348 343 339 333 336 336 17 33 77 112 125 171 270 276 281 297 234 203 157 180 198 91 138 104 34 77 19 4 128 58 42 138 164 192 224 169 165 166 139 118 117 115 85
353 351 349 345 341 337 354 50 54 48 80 5 235 333 282 5 299 316 261 181 121 126 82 104 53 79 39 65 211 192 53 2 233 201 189 193 262 191 176 137 138 126 139 147 135
353 351 348 347 341 348 5 332 11 354 224 235 227 256 271 314 322 24 200 110 100 60 69 21 80 190 224 190 164 146 194 229 255 187 135 213 218 201 162 144 146 156 162 174 169
353 349 346 348 345 1 20 80 115 277 304 243 257 251 256 284 312 309 179 113 103 189 72 16 291 227 172 149 157 179 232 258 298 223 180 187 245 153 182 187 175 176 185 180 164
351 347 343 348 353 5 55 110 329 315 291 301 222 236 280 142 194 264 165 131 130 137 169 172 222 112 143 216 221 208 195 217 196 177 359 110 331 153 192 172 202 209 200 175 174
349 347 341 350 58 350 65 339 336 172 45 304 341 337 82 114 265 211 200 141 105 195 159 233 263 214 172 235 154 277 206 231 198 142 228 182 267 227 201 210 205 218 206 180 183
348 345 341 356 318 331 328 330 342 119 44 318 331 307 350 225 286 248 157 63 180 171 124 238 187 155 188 215 174 229 192 240 273 175 114 197 104 255 161 220 228 219 206 181 167
345 343 341 0 352 343 334 334 78 41 345 342 343 345 8 7 323 321 130 88 162 149 212 242 247 175 219 193 194 273 36 47 58 100 90 231 160 223 184 216 226 220 207 179 163
345 344 347 351 355 339 340 37 42 95 335 342 331 340 349 336 349 13 50 135 155 122 272 325 257 261 201 237 333 81 55 347 346 3 218 38 104 236 216 237 218 210 194 178 164
345 349 359 353 326 331 11 52 76 280 342 332 318 330 61 357 345 340 22 46 32 70 103 216 304 191 269 188 186 164 142 155 245 240 254 83 208 250 276 236 208 172 170 168 167
345 355 44 349 344 347 67 59 167 112 297 315 330 40 358 351 15 3 9 20 50 46 134 135 281 271 231 175 106 327 210 190 130 2 53 236 291 321 331 315 138 158 166 174 173
341 345 19 353 355 7 71 178 197 216 312 345 46 45 37 347 6 3 11 344 342 356 329 215 292 279 313 134 224 167 168 289 1 207 254 290 284 232 245 235 193 181 183 178 175
3 31 356 355 353 44 111 204 276 272 12 21 19 8 40 24 300 301 347 73 4 317 345 16 143 290 23 54 263 342 283 76 141 146 185 223 257 219 208 200 203 200 190 179 181
3 33 350 10 47 45 90 324 294 354 1 22 95 86 70 20 307 336 347 253 345 307 358 344 142 278 226 286 265 139 62 65 20 290 211 169 270 244 220 199 187 197 187 187 182
29 274 348 359 106 1 325 335 359 10 0 17 71 61 46 24 351 7 311 296 17 348 355 334 318 353 335 343 17 83 139 104 211 359 227 165 260 291 181 169 208 194 157 175 170
42 356 335 35 21 89 35 357 323 3 53 359 84 60 39 22 349 303 328 317 332 307 305 304 246 188 211 223 179 297 283 113 115 222 322 257 262 257 228 197 191 187 171 177 173
26 49 167 326 2 32 35 349 334 354 7 17 56 58 294 246 293 277 333 334 301 324 351 54 278 242 248 249 230 237 278 292 244 262 229 271 246 245 215 199 199 178 154 161 170
64 41 1 305 307 332 6 41 76 322 315 12 54 328 300 182 74 304 15 254 254 320 353 10 280 314 272 273 252 266 272 253 208 310 272 250 259 238 129 92 151 177 171 182 184
42 98 110 329 341 78 220 116 58 1 341 80 18 346 338 82 286 250 228 236 242 275 261 240 221 271 267 304 324 284 251 233 229 172 249 255 248 162 189 188 197 186 188 192 187
Height
805 802 799 797 794 790 787 784 781 779 776 774 772 769 767 764 761 759 756 747 748 749 752 754 757 758 760 763 763 767 802 814 802 805 786 785 787 781 778 780 779 782 785 789 796
804 800 798 796 792 788 784 781 779 776 774 771 769 767 765 762 758 753 744 743 745 748 750 753 758 758 766 765 767 778 800 797 779 777 778 784 780 782 784 783 784 789 789 790 797
802 799 797 793 789 785 781 779 776 773 771 769 767 765 764 761 761 745 742 740 742 748 750 753 755 758 766 765 769 778 792 776 768 766 768 779 782 778 783 793 780 787 792 791 795
801 798 796 791 787 783 779 776 773 771 768 766 764 763 762 763 768 742 741 740 741 747 749 752 756 765 772 772 767 774 771 770 762 764 770 780 776 782 781 775 771 779 786 792 796
801 799 795 789 785 780 777 773 770 768 765 763 762 761 762 765 755 742 741 740 742 747 749 752 759 764 771 770 769 772 767 769 759 763 765 769 776 780 780 772 771 780 788 793 798
801 798 792 787 783 778 774 770 766 762 760 759 759 761 764 768 743 741 741 742 742 747 750 751 755 756 762 765 770 767 764 764 765 770 768 775 779 775 776 773 776 781 788 793 797
801 796 791 785 780 775 770 765 761 758 756 756 757 760 763 752 742 741 743 743 744 745 750 750 750 754 757 764 759 760 768 770 774 773 774 772 788 782 773 775 780 784 790 797 803
799 794 788 782 776 770 765 760 757 755 754 755 757 760 757 740 740 739 740 743 744 746 747 748 750 752 756 756 765 767 775 784 776 772 773 772 790 776 775 778 784 789 798 805 809
798 793 786 779 773 767 762 758 758 756 755 756 760 759 753 739 738 735 737 740 741 745 746 748 751 759 761 777 790 787 792 783 781 771 774 781 784 774 776 780 791 798 802 807 813
797 790 783 776 770 764 761 758 759 759 759 759 760 763 743 741 737 735 735 738 741 744 749 752 764 774 784 789 809 791 789 783 779 775 777 785 785 777 775 783 790 797 801 805 806
794 787 780 774 768 764 761 760 763 764 761 756 753 752 744 739 736 735 735 737 741 748 764 761 777 785 778 777 776 777 782 786 779 769 777 779 774 777 780 783 790 792 796 796 792
792 784 778 771 766 765 763 766 770 774 771 748 746 746 739 740 747 737 736 743 749 764 759 774 784 768 765 772 774 779 783 787 774 769 774 778 778 778 778 774 775 779 783 788 797
790 782 775 769 765 766 766 768 769 768 773 751 742 741 737 738 746 741 736 741 752 764 766 779 767 760 762 768 775 780 784 782 779 769 772 782 788 784 778 776 780 779 777 785 788
787 780 772 768 768 766 766 767 765 764 787 760 745 738 736 737 743 730 730 737 750 764 769 770 757 759 766 770 772 783 766 766 771 783 800 774 807 785 784 783 783 780 780 784 790
786 778 771 766 767 767 768 764 762 764 803 756 748 735 735 743 738 731 729 735 754 757 764 766 758 759 764 763 761 769 751 759 762 781 779 779 795 789 783 784 774 769 773 781 787
783 776 769 766 766 767 764 761 763 794 794 768 754 756 752 744 741 731 733 732 738 752 754 759 747 751 753 750 750 745 755 770 783 790 805 778 784 796 782 764 755 761 766 773 782
779 772 768 767 768 765 762 763 797 808 775 781 772 764 764 760 751 747 745 751 763 774 777 762 756 745 741 754 750 757 781 809 804 808 806 778 786 771 759 748 739 743 755 765 775
777 771 769 769 768 766 763 782 795 789 785 771 770 768 770 765 760 757 757 767 754 761 779 781 780 752 740 749 757 759 774 806 807 814 798 778 787 762 749 739 740 742 752 764 773
775 771 770 771 769 767 774 808 800 790 782 781 776 781 781 773 772 766 767 767 758 756 772 782 779 745 739 734 742 760 775 765 791 795 800 788 767 750 749 745 745 747 750 760 766
777 774 774 771 770 769 790 801 792 783 778 776 788 780 791 790 784 778 770 774 774 763 758 764 782 752 741 736 740 750 753 776 794 794 798 790 778 770 757 751 749 751 751 756 761
780 781 775 771 771 780 800 798 788 775 776 781 785 787 792 794 792 784 786 774 773 768 761 767 773 768 749 755 759 760 764 769 780 790 798 800 789 745 734 733 737 739 743 748 754
789 790 777 772 788 803 799 794 787 781 779 779 782 788 792 793 793 790 791 783 774 772 775 767 779 784 767 749 745 748 767 779 796 787 791 792 780 722 720 724 726 729 735 743 749
803 801 780 776 799 804 800 793 789 789 788 785 790 789 792 795 797 790 787 775 775 777 779 773 784 795 781 766 757 764 764 774 785 796 785 785 772 721 723 725 724 727 734 742 748
805 806 797 795 807 803 805 803 797 790 792 789 792 792 795 796 794 796 793 781 778 776 771 773 783 783 794 779 772 775 764 765 780 802 789 779 742 725 724 724 727 728 730 736 743
812 819 820 818 811 811 809 806 802 801 797 797 797 799 800 804 800 799 795 794 784 775 776 780 789 777 773 770 768 768 766 761 766 768 782 753 753 722 716 715 714 722 728 735 741
819 822 823 823 820 809 814 812 807 806 802 802 805 804 800 802 807 809 806 805 798 785 783 786 791 779 776 764 762 761 755 755 749 751 750 745 745 712 710 715 716 716 723 728 732
820 821 822 826 821 817 816 812 811 811 803 803 806 806 804 804 807 805 802 800 795 793 791 791 791 789 786 765 764 769 749 743 740 735 744 747 726 705 710 710 709 711 713 715 719